Location: Mohawk View
(42.7837°N, 73.7885°W)
Time: 12:11:30
(UTC+00:00)

Meteor 1-24 Rocket - Visible Passes

Search period start: 23 October 2021 00:00
Search period end: 02 November 2021 00:00
Orbit: 790 x 927 km, 81.2° (Epoch: 22 October)

Date Brightness Start Highest point End Pass type
(mag) Time Alt. Az. Time Alt. Az. Time Alt. Az.
23 Oct 6.4 09:23:53 10° SE 09:27:30 19° E 09:31:10 10° NE visible
24 Oct 6.4 09:14:23 10° SE 09:17:54 18° E 09:21:29 10° NE visible
25 Oct 6.4 09:04:53 10° SE 09:08:19 18° E 09:11:48 10° NE visible
25 Oct 3.7 10:45:35 10° SSW 10:50:49 58° WNW 10:56:15 10° N visible
26 Oct 6.4 08:55:24 10° ESE 08:58:44 17° E 09:02:07 10° NE visible
26 Oct 3.7 10:35:56 10° SSW 10:41:12 60° WNW 10:46:39 10° N visible
26 Oct 7.3 23:01:51 10° WNW 23:02:41 10° W 23:03:32 10° W visible
27 Oct 6.4 08:45:55 10° ESE 08:49:09 16° E 08:52:26 10° NE visible
27 Oct 3.6 10:26:17 10° SSW 10:31:35 62° WNW 10:37:04 10° N visible
27 Oct 7.2 22:51:44 10° WNW 22:53:08 11° W 22:54:31 10° W visible
28 Oct 6.4 08:36:27 10° ESE 08:39:34 16° E 08:42:44 10° NE visible
28 Oct 3.6 10:16:39 10° SSW 10:21:58 65° WNW 10:27:29 10° N visible
28 Oct 7.1 22:41:49 10° WNW 22:43:34 11° W 22:45:20 10° W visible
29 Oct 6.5 08:26:58 10° ESE 08:29:59 15° E 08:33:02 10° NE visible
29 Oct 3.6 10:07:01 10° SSW 10:12:21 67° WNW 10:17:53 10° N visible
29 Oct 7.0 22:31:57 10° WNW 22:34:00 12° W 22:36:05 10° WSW visible
30 Oct 6.5 08:17:31 10° ESE 08:20:23 15° E 08:23:20 10° NE visible
30 Oct 3.5 09:57:22 10° SSW 10:02:44 70° WNW 10:08:19 10° N visible
30 Oct 7.0 22:22:07 10° WNW 22:24:27 12° W 22:26:46 10° WSW visible
31 Oct 6.5 08:08:04 10° ESE 08:10:49 14° E 08:13:37 10° NE visible
31 Oct 3.5 09:47:44 10° SSW 09:53:07 73° W 09:58:43 10° N visible
31 Oct 6.9 22:12:20 10° NW 22:14:52 13° W 22:17:26 10° WSW visible
01 Nov 6.5 07:58:37 10° ESE 08:01:14 14° E 08:03:53 10° NE visible
01 Nov 3.5 09:38:06 10° SSW 09:43:30 75° W 09:49:08 10° N visible
